Location: Biltmore Gardens
(41.6070°N, 83.4666°W)
Time: 14:21:37
(UTC+00:00)

Cosmos 1680 Rocket - Pass Details

Date: 14 July 2020
Orbit: 760 x 781 km, 74.1° (Epoch: 05 August)

Event Time Altitude Azimuth Distance (km) Brightness Sun altitude
Rises 02:44:32 0° 202° (SSW) 3,249 6.5 -14.9°
Reaches altitude 10° 02:46:54 10° 203° (SSW) 2,327 5.7 -15.2°
Maximum altitude 02:52:12 77° 290° (WNW) 804 3.7 -15.8°
Drops below altitude 10° 02:57:33 10° 17° (NNE) 2,342 6.5 -16.5°
Sets 02:59:57 0° 19° (NNE) 3,273 7.2 -16.7°
